Location: ???????
(55.3754°N, 39.3545°E)
Time: 21:01:21
(UTC+00:00)

Cosmos 1862 - Pass Details

Date: 14 April 2026
Orbit: 465 x 478 km, 82.5° (Epoch: 16 May)

Event Time Altitude Azimuth Distance (km) Brightness Sun altitude
Rises 18:46:10 0° 355° (N) 2,553 7.6 -17.3°
Reaches altitude 10° 18:48:34 10° 10° (N) 1,666 6.3 -17.5°
Maximum altitude 18:51:35 24° 66° (ENE) 1,034 4.5 -17.8°
Enters shadow 18:51:59 24° 77° (ENE) 1,048 4.5 -17.8°
